W4BJB-13 Weather Reports


time (UTC)temp
C
wind
direction
speed
KPH
gust
KPH
rain 1hr
cm
rain 24hr
cm
rain mn
cm
humidity
%
barometer
mb
20260906040005 25 64 0.0 1.6 0.00 0.00 0.00 78 985.8
20260906035504 25 13 0.0 0.0 0.00 0.00 0.00 78 985.9
20260906035004 26 64 0.0 0.0 0.00 0.00 0.00 78 985.9
20260906034504 26 62 0.0 1.6 0.00 0.00 0.00 78 985.8
20260906034005 26 111 0.0 0.0 0.00 0.00 0.00 78 985.8
20260906033004 26 93 0.0 0.0 0.00 0.00 0.00 78 985.8
20260906032005 26 272 0.0 0.0 0.00 0.00 0.00 78 985.7
20260906031504 26 138 0.0 1.6 0.00 0.00 0.00 77 985.6
20260906031004 26 282 0.0 1.6 0.00 0.00 0.00 77 985.7
20260906030504 26 127 0.0 0.0 0.00 0.00 0.00 77 985.6
20260906030005 26 64 0.0 1.6 0.00 0.00 0.00 77 985.6
20260906025505 26 345 0.0 0.0 0.00 0.00 0.00 78 985.4
20260906025004 26 256 0.0 1.6 0.00 0.00 0.00 76 985.4
20260906024504 26 69 0.0 1.6 0.00 0.00 0.00 77 985.4
20260906024005 26 209 0.0 0.0 0.00 0.00 0.00 77 985.2
20260906023505 26 209 0.0 1.6 0.00 0.00 0.00 76 985.1
20260906023004 26 75 0.0 0.0 0.00 0.00 0.00 76 985.0
20260906022504 26 64 0.0 1.6 0.00 0.00 0.00 74 985.0
20260906021505 26 86 0.0 1.6 0.00 0.00 0.00 75 984.7
20260906021004 27 30 0.0 0.0 0.00 0.00 0.00 74 984.7
20260906020504 27 33 0.0 0.0 0.00 0.00 0.00 75 984.8
20260906020004 27 70 0.0 3.2 0.00 0.00 0.00 75 984.7
20260906015504 27 241 0.0 0.0 0.00 0.00 0.00 75 984.6
20260906015004 27 241 0.0 1.6 0.00 0.00 0.00 76 984.6
20260906014504 27 216 1.6 3.2 0.00 0.00 0.00 75 984.7
20260906013504 27 18 0.0 1.6 0.00 0.00 0.00 75 984.5
20260906013004 27 180 0.0 0.0 0.00 0.00 0.00 75 984.4
20260906012504 27 98 0.0 1.6 0.00 0.00 0.00 74 984.5
20260906011504 27 78 0.0 1.6 0.00 0.00 0.00 74 984.7
20260906010504 28 78 0.0 1.6 0.00 0.00 0.00 77 984.8
20260906005004 28 22 0.0 0.0 0.00 0.00 0.00 75 984.5
20260906004004 28 26 0.0 0.0 0.00 0.00 0.00 74 984.4
20260906003004 29 13 0.0 1.6 0.00 0.00 0.00 73 984.3
20260906002504 29 273 0.0 0.0 0.00 0.00 0.00 72 984.2
20260906002004 29 227 0.0 1.6 0.00 0.00 0.00 72 984.3
20260906001505 30 100 0.0 1.6 0.00 0.00 0.00 70 984.3
20260906001004 30 173 0.0 0.0 0.00 0.00 0.00 69 984.4
20260906000504 30 229 0.0 0.0 0.00 0.00 0.00 68 984.3
20260906000004 30 229 0.0 0.0 0.00 0.00 0.00 68 984.3
20260905235504 30 229 0.0 0.0 0.00 0.00 0.00 66 984.4
20260905235004 30 229 0.0 1.6 0.00 0.00 0.00 65 984.4
20260905234504 31 166 0.0 1.6 0.00 0.00 0.00 64 984.4
20260905234004 31 132 0.0 1.6 0.00 0.00 0.00 64 984.4
20260905233504 31 158 0.0 0.0 0.00 0.00 0.00 63 984.4
20260905233005 31 219 0.0 1.6 0.00 0.00 0.00 61 984.3
20260905232504 31 232 0.0 0.0 0.00 0.00 0.00 60 984.2
20260905232004 32 211 0.0 1.6 0.00 0.00 0.00 61 984.1
20260905231503 32 139 0.0 1.6 0.00 0.00 0.00 58 984.1
20260905231003 32 198 0.0 1.6 0.00 0.00 0.00 59 984.2
20260905230505 32 196 0.0 1.6 0.00 0.00 0.00 58 984.2
20260905225504 32 99 0.0 1.6 0.00 0.00 0.00 55 984.2
20260905225004 33 152 0.0 1.6 0.00 0.00 0.00 56 984.2
20260905224504 33 190 0.0 1.6 0.00 0.00 0.00 56 984.2
20260905224004 33 223 0.0 3.2 0.00 0.00 0.00 55 984.2
20260905223504 33 192 0.0 3.2 0.00 0.00 0.00 51 984.3
20260905223004 33 222 1.6 4.8 0.00 0.00 0.00 53 984.2
20260905222504 34 165 0.0 1.6 0.00 0.00 0.00 54 984.3
20260905222004 34 217 1.6 3.2 0.00 0.00 0.00 51 984.3
20260905220504 35 159 1.6 4.8 0.00 0.00 0.00 50 984.2
20260905220003 35 216 1.6 1.6 0.00 0.00 0.00 49 984.3
20260905215503 35 179 0.0 3.2 0.00 0.00 0.00 50 984.3
20260905215003 36 220 1.6 3.2 0.00 0.00 0.00 48 984.3
20260905214504 36 159 1.6 1.6 0.00 0.00 0.00 46 984.2
20260905214005 36 183 1.6 3.2 0.00 0.00 0.00 48 984.3
20260905213505 37 173 1.6 3.2 0.00 0.00 0.00 44 984.3
20260905213005 37 196 3.2 4.8 0.00 0.00 0.00 40 984.4
20260905212505 37 226 1.6 4.8 0.00 0.00 0.00 40 984.4
20260905212005 37 211 3.2 8.0 0.00 0.00 0.00 40 984.4
20260905211005 37 173 1.6 4.8 0.00 0.00 0.00 42 984.4
20260905210505 37 217 1.6 4.8 0.00 0.00 0.00 41 984.4
20260905210005 37 274 3.2 4.8 0.00 0.00 0.00 41 984.4
20260905205505 36 212 3.2 4.8 0.00 0.00 0.00 44 984.5
20260905205005 36 211 3.2 4.8 0.00 0.00 0.00 45 984.6
20260905204505 36 217 3.2 4.8 0.00 0.00 0.00 46 984.6
20260905204005 36 231 1.6 8.0 0.00 0.00 0.00 45 984.7
20260905203505 36 254 3.2 11.3 0.00 0.00 0.00 46 984.7
20260905202505 36 237 1.6 4.8 0.00 0.00 0.00 47 984.9
20260905202005 36 254 3.2 8.0 0.00 0.00 0.00 46 985.0
20260905201505 36 175 1.6 4.8 0.00 0.00 0.00 48 985.1
20260905201005 36 212 0.0 3.2 0.00 0.00 0.00 52 985.1
20260905200005 36 204 3.2 8.0 0.00 0.00 0.00 46 985.2
20260905195504 36 212 3.2 4.8 0.00 0.00 0.00 46 985.3
20260905195005 36 213 3.2 8.0 0.00 0.00 0.00 48 985.4
20260905194505 36 190 3.2 3.2 0.00 0.00 0.00 49 985.4
20260905194005 36 243 1.6 1.6 0.00 0.00 0.00 46 985.5
20260905193504 36 265 3.2 3.2 0.00 0.00 0.00 47 985.6
20260905193004 36 225 1.6 8.0 0.00 0.00 0.00 47 985.6
20260905192505 36 174 1.6 4.8 0.00 0.00 0.00 47 985.7
20260905192005 36 232 3.2 4.8 0.00 0.00 0.00 47 985.7
20260905191005 35 220 3.2 4.8 0.00 0.00 0.00 48 986.0
20260905190505 35 226 3.2 4.8 0.00 0.00 0.00 48 986.1
20260905190004 35 228 1.6 4.8 0.00 0.00 0.00 48 986.2
20260905185504 35 189 1.6 8.0 0.00 0.00 0.00 50 986.3
20260905184505 35 200 4.8 8.0 0.00 0.00 0.00 50 986.4
20260905184005 35 235 1.6 3.2 0.00 0.00 0.00 54 986.5
20260905183504 35 187 1.6 1.6 0.00 0.00 0.00 52 986.5
20260905183005 35 210 1.6 3.2 0.00 0.00 0.00 52 986.6
20260905182505 34 206 1.6 1.6 0.00 0.00 0.00 53 986.6
20260905182004 34 223 3.2 4.8 0.00 0.00 0.00 52 986.7
20260905181505 34 235 3.2 8.0 0.00 0.00 0.00 54 986.8
20260905181004 33 218 1.6 4.8 0.00 0.00 0.00 56 986.7
20260905180505 33 228 1.6 3.2 0.00 0.00 0.00 54 986.8
20260905180005 33 157 1.6 1.6 0.00 0.00 0.00 54 986.9
20260905175505 33 163 1.6 3.2 0.00 0.00 0.00 55 987.0
20260905175005 33 239 4.8 4.8 0.00 0.00 0.00 56 987.0
20260905174005 33 165 1.6 3.2 0.00 0.00 0.00 57 986.9
20260905173505 33 190 3.2 4.8 0.00 0.00 0.00 56 986.9
20260905173004 33 239 3.2 4.8 0.00 0.00 0.00 59 987.0
20260905172504 32 199 1.6 4.8 0.00 0.00 0.00 58 987.0
20260905172005 32 215 1.6 3.2 0.00 0.00 0.00 60 987.2
20260905171005 32 236 1.6 3.2 0.00 0.00 0.00 64 987.2
20260905170504 32 169 3.2 3.2 0.00 0.00 0.00 61 987.3
20260905170004 32 223 1.6 1.6 0.00 0.00 0.00 64 987.4
20260905165504 31 243 3.2 4.8 0.00 0.00 0.00 63 987.4
20260905165005 31 224 1.6 3.2 0.00 0.00 0.00 63 987.5
20260905164504 31 192 1.6 3.2 0.00 0.00 0.00 66 987.5
20260905164005 31 240 3.2 4.8 0.00 0.00 0.00 68 987.6
20260905163504 30 310 3.2 3.2 0.00 0.00 0.00 69 987.7
20260905163005 30 206 1.6 1.6 0.00 0.00 0.00 69 987.8
20260905162004 30 242 0.0 1.6 0.00 0.00 0.00 72 987.8
20260905161504 30 273 3.2 4.8 0.00 0.00 0.00 71 987.9
20260905161004 30 226 1.6 3.2 0.00 0.00 0.00 72 988.0
20260905160004 29 203 1.6 4.8 0.00 0.00 0.00 72 988.0
20260905155004 28 290 4.8 4.8 0.00 0.00 0.00 73 988.1
20260905154505 28 275 1.6 3.2 0.00 0.00 0.00 74 988.1
20260905154005 28 355 0.0 1.6 0.00 0.00 0.00 74 988.1
20260905153504 28 335 0.0 3.2 0.00 0.00 0.00 75 988.1
20260905153004 28 240 1.6 3.2 0.00 0.00 0.00 75 988.2
20260905152504 27 128 0.0 1.6 0.00 0.00 0.00 76 988.2
20260905152004 27 116 1.6 1.6 0.00 0.00 0.00 75 988.1
20260905151504 27 26 1.6 3.2 0.00 0.00 0.00 75 988.1
20260905151004 27 51 0.0 0.0 0.00 0.00 0.00 77 988.1
20260905150004 27 70 0.0 0.0 0.00 0.00 0.00 82 988.2
20260905145504 26 70 0.0 0.0 0.00 0.00 0.00 82 988.3
20260905145005 26 70 0.0 0.0 0.00 0.00 0.00 81 988.3
20260905144004 26 312 0.0 0.0 0.00 0.00 0.00 83 988.3
20260905142504 26 267 1.6 3.2 0.00 0.00 0.00 84 988.3
20260905142004 25 295 3.2 3.2 0.00 0.00 0.00 84 988.3
20260905141504 25 258 0.0 4.8 0.00 0.00 0.00 85 988.4
20260905141004 25 312 1.6 4.8 0.00 0.00 0.00 86 988.4
20260905140504 25 351 1.6 1.6 0.00 0.00 0.00 87 988.4
20260905140004 25 3 1.6 1.6 0.00 0.00 0.00 88 988.4
20260905135504 25 28 0.0 1.6 0.00 0.00 0.00 89 988.4
20260905135004 24 25 1.6 1.6 0.00 0.00 0.00 90 988.3
20260905134004 24 358 1.6 1.6 0.00 0.00 0.00 90 988.3
20260905133504 24 27 1.6 1.6 0.00 0.00 0.00 90 988.3
20260905133004 23 50 1.6 3.2 0.00 0.00 0.00 91 988.3
20260905132504 23 29 1.6 1.6 0.00 0.00 0.00 91 988.4
20260905132004 23 23 1.6 1.6 0.00 0.00 0.00 91 988.4
20260905131504 23 19 0.0 1.6 0.00 0.00 0.00 91 988.5
20260905131004 23 28 1.6 1.6 0.00 0.00 0.00 91 988.5
20260905130004 23 24 1.6 1.6 0.00 0.00 0.00 91 988.5
20260905125504 23 25 1.6 3.2 0.00 0.00 0.00 91 988.4
20260905125004 23 43 1.6 3.2 0.00 0.00 0.00 91 988.4
20260905124504 23 48 1.6 3.2 0.00 0.00 0.00 91 988.4
20260905123504 22 72 1.6 1.6 0.00 0.00 0.00 91 988.3
20260905123005 22 36 1.6 1.6 0.00 0.00 0.00 91 988.3
20260905122505 22 41 1.6 3.2 0.00 0.00 0.00 91 988.2
20260905122005 22 44 1.6 3.2 0.00 0.00 0.00 91 988.1
20260905121505 22 36 1.6 3.2 0.00 0.00 0.00 91 988.2
20260905121005 22 1 1.6 1.6 0.00 0.00 0.00 91 988.1
20260905120504 22 27 1.6 1.6 0.00 0.00 0.00 91 988.0
20260905120005 22 64 1.6 1.6 0.00 0.00 0.00 91 988.0
20260905115505 22 36 0.0 0.0 0.00 0.00 0.00 91 988.0
20260905115005 22 53 1.6 1.6 0.00 0.00 0.00 91 987.9
20260905114504 22 52 1.6 1.6 0.00 0.00 0.00 91 987.9
20260905114004 22 38 1.6 1.6 0.00 0.00 0.00 91 987.7
20260905113504 22 52 1.6 1.6 0.00 0.00 0.00 91 987.7
20260905113005 22 37 1.6 1.6 0.00 0.00 0.00 91 987.6
20260905112504 22 32 1.6 1.6 0.00 0.00 0.00 91 987.6
20260905112005 22 314 0.0 1.6 0.00 0.00 0.00 91 987.5
20260905111505 22 31 0.0 1.6 0.00 0.00 0.00 91 987.5
20260905111005 22 33 0.0 1.6 0.00 0.00 0.00 91 987.5
20260905110505 22 7 1.6 1.6 0.00 0.00 0.00 91 987.5
20260905110005 22 21 1.6 1.6 0.00 0.00 0.00 91 987.5
20260905105505 22 31 0.0 1.6 0.00 0.00 0.00 91 987.4
20260905105005 22 68 0.0 1.6 0.00 0.00 0.00 91 987.3
20260905104504 22 7 0.0 1.6 0.00 0.00 0.00 91 987.2
20260905104004 22 55 1.6 3.2 0.00 0.00 0.00 91 987.2
20260905103505 22 38 1.6 1.6 0.00 0.00 0.00 91 987.2
20260905103005 22 333 0.0 1.6 0.00 0.00 0.00 91 987.1
20260905102505 22 210 0.0 1.6 0.00 0.00 0.00 91 987.0
20260905102004 22 52 0.0 1.6 0.00 0.00 0.00 91 987.0
20260905101505 22 56 1.6 1.6 0.00 0.00 0.00 91 987.0
20260905100504 22 16 0.0 1.6 0.00 0.00 0.00 91 987.0
20260905100004 22 328 0.0 1.6 0.00 0.00 0.00 90 986.9
20260905095004 22 33 1.6 1.6 0.00 0.00 0.00 90 986.9
20260905094505 22 214 0.0 1.6 0.00 0.00 0.00 90 986.9
20260905093504 22 18 0.0 1.6 0.00 0.00 0.00 90 986.8
20260905093005 22 352 1.6 1.6 0.00 0.00 0.00 90 986.8
20260905092504 22 8 0.0 1.6 0.00 0.00 0.00 90 986.8
20260905092004 22 8 1.6 3.2 0.00 0.00 0.00 90 986.8
20260905091504 22 7 1.6 1.6 0.00 0.00 0.00 90 986.7
20260905091005 22 359 1.6 1.6 0.00 0.00 0.00 90 986.7
20260905090505 22 15 0.0 1.6 0.00 0.00 0.00 90 986.8
20260905085504 22 16 0.0 1.6 0.00 0.00 0.00 90 986.9
20260905085004 22 18 0.0 1.6 0.00 0.00 0.00 90 986.9
20260905084504 22 16 0.0 0.0 0.00 0.00 0.00 90 986.9
20260905083504 22 26 1.6 1.6 0.00 0.00 0.00 90 987.0
20260905083004 22 64 0.0 1.6 0.00 0.00 0.00 90 986.9
20260905082504 22 26 0.0 0.0 0.00 0.00 0.00 90 986.9
20260905082005 22 21 0.0 1.6 0.00 0.00 0.00 90 986.9
20260905081504 22 28 1.6 1.6 0.00 0.00 0.00 90 987.0
20260905081004 22 26 0.0 1.6 0.00 0.00 0.00 90 986.9
20260905080504 22 38 0.0 1.6 0.00 0.00 0.00 90 986.9
20260905075504 22 312 0.0 0.0 0.00 0.00 0.00 90 986.8
20260905075004 22 147 0.0 0.0 0.00 0.00 0.00 89 986.9
20260905074504 22 246 0.0 1.6 0.00 0.00 0.00 90 987.0
20260905074004 22 355 0.0 1.6 0.00 0.00 0.00 89 987.0
20260905073504 22 17 1.6 1.6 0.00 0.00 0.00 90 986.9
20260905072504 22 240 0.0 0.0 0.00 0.00 0.00 89 987.0
20260905072004 22 338 0.0 0.0 0.00 0.00 0.00 89 987.0
20260905071504 22 21 0.0 1.6 0.00 0.00 0.00 89 987.0
20260905071004 22 16 0.0 1.6 0.00 0.00 0.00 89 986.9
20260905070504 22 349 0.0 0.0 0.00 0.00 0.00 89 986.9
20260905064505 23 31 1.6 1.6 0.00 0.00 0.00 89 986.9
20260905064004 23 21 0.0 1.6 0.00 0.00 0.00 89 986.9
20260905063004 23 21 0.0 0.0 0.00 0.00 0.00 89 987.0
20260905062505 23 22 0.0 0.0 0.00 0.00 0.00 89 987.1
20260905062005 23 39 0.0 1.6 0.00 0.00 0.00 89 987.1
20260905061505 23 13 0.0 0.0 0.00 0.00 0.00 89 987.1
20260905061004 23 44 0.0 1.6 0.00 0.00 0.00 88 987.1
20260905060504 23 84 0.0 1.6 0.00 0.00 0.00 88 987.1
20260905060004 23 249 0.0 1.6 0.00 0.00 0.00 88 987.1
20260905055004 23 293 0.0 0.0 0.00 0.00 0.00 88 987.0
20260905054503 23 293 0.0 0.0 0.00 0.00 0.00 88 987.1
20260905054004 23 293 0.0 0.0 0.00 0.00 0.00 88 987.1
20260905053504 23 293 0.0 0.0 0.00 0.00 0.00 88 987.2
20260905053004 23 293 0.0 0.0 0.00 0.00 0.00 88 987.2
20260905052504 23 293 0.0 0.0 0.00 0.00 0.00 88 987.3
20260905052004 23 293 0.0 0.0 0.00 0.00 0.00 88 987.3
20260905051505 23 293 0.0 0.0 0.00 0.00 0.00 88 987.3
20260905051004 23 293 0.0 0.0 0.00 0.00 0.00 88 987.2
20260905050504 23 293 0.0 0.0 0.00 0.00 0.00 88 987.3
20260905050005 23 293 0.0 0.0 0.00 0.00 0.00 88 987.4
20260905045004 23 70 0.0 0.0 0.00 0.00 0.00 88 987.4
20260905044504 23 70 0.0 1.6 0.00 0.00 0.00 88 987.5
20260905044004 23 30 0.0 0.0 0.00 0.00 0.00 88 987.4
20260905043504 23 16 0.0 1.6 0.00 0.00 0.00 88 987.4
20260905043004 23 252 0.0 0.0 0.00 0.00 0.00 88 987.4
20260905042504 23 252 0.0 0.0 0.00 0.00 0.00 88 987.3
20260905041504 23 252 0.0 0.0 0.00 0.00 0.00 87 987.3
20260905041004 23 252 0.0 0.0 0.00 0.00 0.00 87 987.2
20260905040504 24 252 0.0 1.6 0.00 0.00 0.00 87 987.3